Change the Weather History Date:

Wednesday, October 9, 2013

  Actual Average Record
Temperature  
Mean Temperature 36 °F -  
Max Temperature 46 °F 49 °F 66 °F (2012)
Min Temperature 26 °F 30 °F 21 °F (2006)
Degree Days  
Heating Degree Days 29    
Moisture  
Dew Point 28 °F    
Average Humidity 78    
Maximum Humidity 93    
Minimum Humidity 45    
Precipitation  
Precipitation 0.00 in - - ()
Sea Level Pressure  
Sea Level Pressure 30.03 in    
Wind  
Wind Speed 4 mph ()    
Max Wind Speed 12 mph    
Max Gust Speed 22 mph    
Visibility 9.0 miles    
Events Rain    
Averages and records for this station are not official NWS values.
T = Trace of Precipitation, MM = Missing Value Source: Averaged Metar Reports

Daily Weather History Graph

Daily Weather History Graph

Search for Another Location

Airport or City:

Trip Planner

Search our weather history database for the weather conditions in past years. The results will help you decide how hot, cold, wet, or windy it might be!

Date:

Astronomy

Oct. 09, 2013 Rise Set
Actual Time 7:20 AM PDT 6:25 PM PDT
Civil Twilight 6:47 AM PDT 6:58 PM PDT
Nautical Twilight 6:08 AM PDT 7:36 PM PDT
Astronomical Twilight 5:29 AM PDT 8:15 PM PDT
Moon 12:48 PM PDT (10/9) 9:38 PM PDT (10/9)
Length of Visible Light 12h 11m
Length of Day
11h 05m
Waxing Crescent, 26% of the Moon is Illuminated
Oct 9
Waxing Crescent
Oct 11
First Quarter
Oct 18
Full
Oct 26
Last Quarter
Nov 3
New

Hourly Weather History & Observations

Time (PDT) Temp. Windchill Dew Point Humidity Pressure Visibility Wind Dir Wind Speed Gust Speed Precip Events Conditions
12:00 AM 30.2 °F - 26.6 °F 86% 30.20 in 9.0 mi NW 2.3 mph - N/A   Partly Cloudy
1:00 AM 28.4 °F - 24.8 °F 86% 30.22 in 9.0 mi Calm Calm - N/A   Partly Cloudy
2:00 AM 27 °F - 24 °F 82% 30.22 in 9 mi SW 3.5 mph - -  
2:00 AM 26.6 °F 22.6 °F 23.0 °F 86% 30.22 in 9.0 mi SW 3.5 mph - N/A   Clear
3:00 AM 26.6 °F - 23.0 °F 86% 30.20 in 9.0 mi Calm Calm - N/A   Clear
4:00 AM 26.6 °F - 23.0 °F 86% 30.19 in 9.0 mi SSW 2.3 mph - N/A   Clear
5:00 AM 27 °F - 24 °F 84% 30.19 in 9 mi SW 2.3 mph - -  
5:00 AM 26.6 °F 22.6 °F 24.8 °F 93% 30.19 in 9.0 mi SW 3.5 mph - N/A   Clear
6:00 AM 28.4 °F 24.6 °F 24.8 °F 86% 30.17 in 9.0 mi South 3.5 mph - N/A   Partly Cloudy
6:39 AM 30.2 °F 24.3 °F 26.6 °F 86% 30.05 in 9.0 mi SSW 5.8 mph - N/A   Mostly Cloudy
6:40 AM 30.2 °F 25.4 °F 26.6 °F 86% 30.05 in 9.0 mi SSW 4.6 mph - N/A   Scattered Clouds
6:50 AM 30.2 °F - 26.6 °F 86% 30.05 in 9.0 mi SW 2.3 mph - N/A   Mostly Cloudy
7:00 AM 30.2 °F 25.4 °F 26.6 °F 86% 30.15 in 9.0 mi South 4.6 mph - N/A   Partly Cloudy
7:22 AM 28.4 °F 24.6 °F 26.6 °F 93% 30.03 in 9.0 mi SSW 3.5 mph - N/A   Mostly Cloudy
7:29 AM 28.4 °F 23.3 °F 26.6 °F 93% 30.03 in 9.0 mi SSW 4.6 mph - N/A   Overcast
7:50 AM 28.4 °F 22.2 °F 26.6 °F 93% 30.02 in 9.0 mi South 5.8 mph - N/A   Overcast
7:56 AM 30.2 °F 23.4 °F 26.6 °F 86% 30.02 in 9.0 mi SSE 6.9 mph - N/A   Mostly Cloudy
7:57 AM 30.2 °F 23.4 °F 26.6 °F 86% 30.02 in 9.0 mi South 6.9 mph - N/A   Mostly Cloudy
8:00 AM 29 °F - 27 °F 88% 30.13 in 9 mi South 6.9 mph - -   Overcast
8:00 AM 30.2 °F 22.6 °F 26.6 °F 86% 30.13 in 9.0 mi South 8.1 mph - N/A   Overcast
8:03 AM 30.2 °F 23.4 °F 26.6 °F 86% 30.02 in 9.0 mi South 6.9 mph - N/A   Overcast
8:43 AM 30.2 °F 25.4 °F 26.6 °F 86% 30.02 in 9.0 mi South 4.6 mph - N/A   Overcast
8:46 AM 30.2 °F 24.3 °F 26.6 °F 86% 30.02 in 7.0 mi South 5.8 mph - N/A   Overcast
9:00 AM 30.2 °F 22.6 °F 28.4 °F 93% 30.12 in 9.0 mi South 8.1 mph - N/A   Overcast
9:06 AM 30.2 °F 24.3 °F 28.4 °F 93% 30.01 in 9.0 mi South 5.8 mph - N/A   Overcast
9:14 AM 30.2 °F 23.4 °F 28.4 °F 93% 30.00 in 9.0 mi South 6.9 mph - N/A   Mostly Cloudy
10:00 AM 33.8 °F 25.3 °F 30.2 °F 87% 30.09 in 9.0 mi South 11.5 mph 17.3 mph N/A   Partly Cloudy
11:00 AM 36 °F - 30 °F 70% 30.05 in 9 mi South 11.5 mph - -  
11:00 AM 35.6 °F 27.5 °F 30.2 °F 81% 30.05 in 9.0 mi South 11.5 mph 19.6 mph N/A   Mostly Cloudy
12:00 PM 39.2 °F 32.5 °F 30.2 °F 70% 30.02 in 9.0 mi SSE 10.4 mph 17.3 mph N/A   Partly Cloudy
1:00 PM 39.2 °F 32.5 °F 30.2 °F 70% 30.00 in 9.0 mi SSE 10.4 mph - N/A   Partly Cloudy
2:00 PM 41 °F - 29 °F 51% 29.98 in 9 mi South 9.2 mph - -  
2:00 PM 41.0 °F 35.8 °F 28.4 °F 61% 29.98 in 9.0 mi South 8.1 mph 17.3 mph N/A   Mostly Cloudy
3:00 PM 46.4 °F 42.4 °F 32.0 °F 57% 29.94 in 9.0 mi South 8.1 mph 21.9 mph N/A   Partly Cloudy
4:00 PM 46.4 °F 41.1 °F 30.2 °F 53% 29.91 in 9.0 mi South 11.5 mph 18.4 mph N/A   Clear
5:00 PM 44 °F - 30 °F 45% 29.90 in 9 mi South 9.2 mph - -  
5:00 PM 44.6 °F 39.7 °F 30.2 °F 57% 29.90 in 9.0 mi South 9.2 mph 18.4 mph N/A   Partly Cloudy
6:00 PM 42.8 °F 38.6 °F 30.2 °F 61% 29.89 in 9.0 mi South 6.9 mph - N/A   Clear
7:00 PM 42.8 °F 40.1 °F 30.2 °F 61% 29.88 in 9.0 mi South 4.6 mph - N/A   Scattered Clouds
7:36 PM 41.0 °F - 32.0 °F 70% 29.80 in 9.0 mi Calm Calm - N/A Rain Light Rain
8:00 PM 40 °F - 34 °F 72% 29.89 in 9 mi South 2.3 mph - -  
8:00 PM 41.0 °F - 33.8 °F 76% 29.89 in 9.0 mi South 2.3 mph - N/A   Clear
9:00 PM 41.0 °F 38.0 °F 33.8 °F 76% 29.88 in 9.0 mi SSW 4.6 mph - N/A   Scattered Clouds
10:00 PM 41.0 °F 38.0 °F 32.0 °F 70% 29.87 in 9.0 mi South 4.6 mph - N/A   Scattered Clouds
11:00 PM 39 °F - 32 °F 67% 29.86 in 9 mi South 4.6 mph - -  
11:00 PM 39.2 °F 35.9 °F 32.0 °F 75% 29.86 in 9.0 mi SSW 4.6 mph - N/A   Scattered Clouds